Overview Statistics Trail Chart Weather Telemetry Raw packets
 

This is the latest recevied weather packets stored in our database for station/object KN4AN. If no packets are shown the sender has not sent any weather packets the latest 10 day(s).

<< 82 83 84 85 86 87 88 >>
Time Temp. Humidity Pressure Rain* Wind** Luminosity Snow
1787953644 31.11° C 50% 1016.8 hPa 0 mm - 128 W/m² -
1787953338 30.56° C 48% 1016.7 hPa 0 mm - 191 W/m² -
1787953037 30.56° C 53% 1016.8 hPa 0 mm - 97 W/m² -
1787952736 30.56° C 48% 1016.6 hPa 0 mm - 93 W/m² -
1787952431 31.67° C 46% 1016.7 hPa 0 mm - 92 W/m² -
1787952127 32.22° C 44% 1016.7 hPa 0 mm - 98 W/m² -
1787951826 32.78° C 42% 1016.6 hPa 0 mm - 132 W/m² -
1787951522 33.33° C 44% 1016.7 hPa 0 mm - 140 W/m² -
1787951218 33.89° C 40% 1016.6 hPa 0 mm - 174 W/m² -
1787950913 32.78° C 41% 1016.7 hPa 0 mm - 255 W/m² -
1787950609 32.78° C 43% 1016.8 hPa 0 mm - 313 W/m² -
1787950304 32.78° C 42% 1016.9 hPa 0 mm - 308 W/m² -
1787950001 32.22° C 45% 1016.8 hPa 0 mm - 332 W/m² -
1787949696 32.22° C 44% 1016.8 hPa 0 mm - 360 W/m² -
1787949395 32.22° C 45% 1016.8 hPa 0 mm - 311 W/m² -
1787949090 32.22° C 45% 1016.7 hPa 0 mm - 394 W/m² -
1787948787 32.22° C 44% 1016.6 hPa 0 mm - 227 W/m² -
1787948486 32.78° C 43% 1016.9 hPa 0 mm - 317 W/m² -
1787948181 32.22° C 45% 1016.7 hPa 0 mm - 349 W/m² -
1787947880 32.22° C 45% 1016.7 hPa 0 mm - 454 W/m² -
1787947576 32.22° C 46% 1016.9 hPa 0 mm - 503 W/m² -
1787947275 31.67° C 47% 1017 hPa 0 mm - 488 W/m² -
1787946974 31.67° C 45% 1016.9 hPa 0 mm - 376 W/m² -
1787946673 31.67° C 47% 1017 hPa 0 mm - 567 W/m² -
1787946368 31.67° C 47% 1017.2 hPa 0 mm - 490 W/m² -

* Rain latest hour (hover to see other rain measurements)
** Current wind speed in m/s (hover to see current wind gust speed)